Time,TemperatureF,DewpointF,PressureIn,WindDirection,WindDirectionDegrees,WindSpeedMPH,WindSpeedGustMPH,Humidity,HourlyPrecipIn,Conditions,Clouds,dailyrainin,SolarRadiationWatts/m^2,SoftwareType,DateUTC
2013-02-09 00:02:00,41.0,27.0,-100.00,NNW,331,3.0,7.0,58,0.00,,,0.02,0.000000,,2013-02-09 05:02:00,
2013-02-09 00:12:00,41.0,27.0,-100.00,NNW,331,3.0,7.0,58,0.00,,,0.02,0.000000,,2013-02-09 05:12:00,
2013-02-09 00:22:00,41.0,27.0,-100.00,NNW,331,3.0,7.0,58,0.00,,,0.02,0.000000,,2013-02-09 05:22:00,
2013-02-09 00:32:00,41.0,27.0,-100.00,NNW,331,3.0,7.0,58,0.00,,,0.02,0.000000,,2013-02-09 05:32:00,
2013-02-09 00:42:00,38.0,27.0,-100.00,North,358,2.0,4.0,64,0.00,,,0.00,0.000000,,2013-02-09 05:42:00,
2013-02-09 01:02:00,38.0,27.0,-100.00,North,358,2.0,4.0,64,0.00,,,0.00,0.000000,,2013-02-09 06:02:00,
2013-02-09 01:11:00,38.0,27.0,-100.00,North,358,2.0,4.0,64,0.00,,,0.00,0.000000,,2013-02-09 06:11:00,
2013-02-09 01:21:00,38.0,27.0,-100.00,North,358,2.0,4.0,64,0.00,,,0.00,0.000000,,2013-02-09 06:21:00,
2013-02-09 01:32:00,38.0,27.0,-100.00,North,358,2.0,4.0,64,0.00,,,0.00,0.000000,,2013-02-09 06:32:00,
2013-02-09 01:42:00,34.0,27.0,-100.00,SSE,162,2.0,5.0,75,0.00,,,0.00,0.000000,,2013-02-09 06:42:00,
2013-02-09 02:01:00,34.0,27.0,-100.00,SSE,162,2.0,5.0,75,0.00,,,0.00,0.000000,,2013-02-09 07:01:00,
2013-02-09 02:11:00,34.0,27.0,-100.00,SSE,162,2.0,5.0,75,0.00,,,0.00,0.000000,,2013-02-09 07:11:00,
2013-02-09 02:22:00,34.0,27.0,-100.00,SSE,162,2.0,5.0,75,0.00,,,0.00,0.000000,,2013-02-09 07:22:00,
2013-02-09 02:32:00,34.0,27.0,-100.00,SSE,162,2.0,5.0,75,0.00,,,0.00,0.000000,,2013-02-09 07:32:00,
2013-02-09 02:42:00,36.0,25.0,-100.00,NNE,31,1.0,3.0,65,0.00,,,0.00,0.000000,,2013-02-09 07:42:00,
2013-02-09 03:01:00,36.0,25.0,-100.00,NNE,31,1.0,3.0,65,0.00,,,0.00,0.000000,,2013-02-09 08:01:00,
2013-02-09 03:11:00,36.0,25.0,-100.00,NNE,31,1.0,3.0,65,0.00,,,0.00,0.000000,,2013-02-09 08:11:00,
2013-02-09 03:21:00,36.0,25.0,-100.00,NNE,31,1.0,3.0,65,0.00,,,0.00,0.000000,,2013-02-09 08:21:00,
2013-02-09 03:32:00,36.0,25.0,-100.00,NNE,31,1.0,3.0,65,0.00,,,0.00,0.000000,,2013-02-09 08:32:00,
2013-02-09 03:42:00,33.0,26.0,-100.00,NE,38,1.0,4.0,74,0.00,,,0.00,0.000000,,2013-02-09 08:42:00,
2013-02-09 04:03:00,33.0,26.0,-100.00,NE,38,1.0,4.0,74,0.00,,,0.00,0.000000,,2013-02-09 09:03:00,
2013-02-09 04:11:00,33.0,26.0,-100.00,NE,38,1.0,4.0,74,0.00,,,0.00,0.000000,,2013-02-09 09:11:00,
2013-02-09 04:22:00,33.0,26.0,-100.00,NE,38,1.0,4.0,74,0.00,,,0.00,0.000000,,2013-02-09 09:22:00,
2013-02-09 04:32:00,33.0,26.0,-100.00,NE,38,1.0,4.0,74,0.00,,,0.00,0.000000,,2013-02-09 09:32:00,
2013-02-09 04:42:00,35.0,24.0,-100.00,North,353,3.0,6.0,64,0.00,,,0.00,0.000000,,2013-02-09 09:42:00,
2013-02-09 05:01:00,35.0,24.0,-100.00,North,353,3.0,6.0,64,0.00,,,0.00,0.000000,,2013-02-09 10:01:00,
2013-02-09 05:11:00,35.0,24.0,-100.00,North,353,3.0,6.0,64,0.00,,,0.00,0.000000,,2013-02-09 10:11:00,
2013-02-09 05:21:00,35.0,24.0,-100.00,North,353,3.0,6.0,64,0.00,,,0.00,0.000000,,2013-02-09 10:21:00,
2013-02-09 05:32:00,35.0,24.0,-100.00,North,353,3.0,6.0,64,0.00,,,0.00,0.000000,,2013-02-09 10:32:00,
2013-02-09 06:02:00,32.0,25.0,-100.00,NNW,342,2.0,4.0,75,0.00,,,0.00,0.000000,,2013-02-09 11:02:00,
2013-02-09 06:11:00,32.0,25.0,-100.00,NNW,342,2.0,4.0,75,0.00,,,0.00,0.000000,,2013-02-09 11:11:00,
2013-02-09 06:22:00,32.0,25.0,-100.00,NNW,342,2.0,4.0,75,0.00,,,0.00,0.000000,,2013-02-09 11:22:00,
2013-02-09 06:32:00,32.0,25.0,-100.00,NNW,342,2.0,4.0,75,0.00,,,0.00,0.000000,,2013-02-09 11:32:00,
2013-02-09 06:41:00,32.0,25.0,-100.00,NNW,342,2.0,4.0,75,0.00,,,0.00,0.000000,,2013-02-09 11:41:00,
2013-02-09 06:42:00,31.0,23.0,-100.00,North,352,0.0,4.0,73,0.00,,,0.00,0.000000,,2013-02-09 11:42:00,
2013-02-09 07:02:00,31.0,23.0,-100.00,North,352,0.0,4.0,73,0.00,,,0.00,0.000000,,2013-02-09 12:02:00,
2013-02-09 07:11:00,31.0,23.0,-100.00,North,352,0.0,4.0,73,0.00,,,0.00,0.000000,,2013-02-09 12:11:00,
2013-02-09 07:22:00,31.0,23.0,-100.00,North,352,0.0,4.0,73,0.00,,,0.00,0.000000,,2013-02-09 12:22:00,
2013-02-09 07:32:00,31.0,23.0,-100.00,North,352,0.0,4.0,73,0.00,,,0.00,0.000000,,2013-02-09 12:32:00,
2013-02-09 07:42:00,30.0,22.0,-100.00,NNW,340,2.0,3.0,72,0.00,,,0.00,0.000000,,2013-02-09 12:42:00,
2013-02-09 08:02:00,30.0,22.0,-100.00,NNW,340,2.0,3.0,72,0.00,,,0.00,0.000000,,2013-02-09 13:02:00,
2013-02-09 08:11:00,30.0,22.0,-100.00,NNW,340,2.0,3.0,72,0.00,,,0.00,0.000000,,2013-02-09 13:11:00,
2013-02-09 08:22:00,30.0,22.0,-100.00,NNW,340,2.0,3.0,72,0.00,,,0.00,0.000000,,2013-02-09 13:22:00,
2013-02-09 08:32:00,30.0,22.0,-100.00,NNW,340,2.0,3.0,72,0.00,,,0.00,0.000000,,2013-02-09 13:32:00,
2013-02-09 08:42:00,35.0,23.0,-100.00,ENE,64,1.0,4.0,60,0.00,,,0.00,0.000000,,2013-02-09 13:42:00,
2013-02-09 09:02:00,35.0,23.0,-100.00,ENE,64,1.0,4.0,60,0.00,,,0.00,0.000000,,2013-02-09 14:02:00,
2013-02-09 09:11:00,35.0,23.0,-100.00,ENE,64,1.0,4.0,60,0.00,,,0.00,0.000000,,2013-02-09 14:11:00,
2013-02-09 09:22:00,35.0,23.0,-100.00,ENE,64,1.0,4.0,60,0.00,,,0.00,0.000000,,2013-02-09 14:22:00,
2013-02-09 09:32:00,35.0,23.0,-100.00,ENE,64,1.0,4.0,60,0.00,,,0.00,0.000000,,2013-02-09 14:32:00,
2013-02-09 09:42:00,42.0,24.0,-100.00,NW,309,1.0,4.0,49,0.00,,,0.00,0.000000,,2013-02-09 14:42:00,
2013-02-09 10:02:00,42.0,24.0,-100.00,NW,309,1.0,4.0,49,0.00,,,0.00,0.000000,,2013-02-09 15:02:00,
2013-02-09 10:11:00,42.0,24.0,-100.00,NW,309,1.0,4.0,49,0.00,,,0.00,0.000000,,2013-02-09 15:11:00,
2013-02-09 10:22:00,42.0,24.0,-100.00,NW,309,1.0,4.0,49,0.00,,,0.00,0.000000,,2013-02-09 15:22:00,
2013-02-09 10:32:00,42.0,24.0,-100.00,NW,309,1.0,4.0,49,0.00,,,0.00,0.000000,,2013-02-09 15:32:00,
2013-02-09 10:42:00,48.0,24.0,-100.00,North,1,2.0,4.0,38,0.00,,,0.00,0.000000,,2013-02-09 15:42:00,
2013-02-09 11:01:00,48.0,24.0,-100.00,North,1,2.0,4.0,38,0.00,,,0.00,0.000000,,2013-02-09 16:01:00,
2013-02-09 11:11:00,48.0,24.0,-100.00,North,1,2.0,4.0,38,0.00,,,0.00,0.000000,,2013-02-09 16:11:00,
2013-02-09 11:22:00,48.0,24.0,-100.00,North,1,2.0,4.0,38,0.00,,,0.00,0.000000,,2013-02-09 16:22:00,
2013-02-09 11:32:00,48.0,24.0,-100.00,North,1,2.0,4.0,38,0.00,,,0.00,0.000000,,2013-02-09 16:32:00,
2013-02-09 11:42:00,53.0,21.0,-100.00,NW,314,5.0,9.0,28,0.00,,,0.00,0.000000,,2013-02-09 16:42:00,
2013-02-09 12:01:00,53.0,21.0,-100.00,NW,314,5.0,9.0,28,0.00,,,0.00,0.000000,,2013-02-09 17:01:00,
2013-02-09 12:11:00,53.0,21.0,-100.00,NW,314,5.0,9.0,28,0.00,,,0.00,0.000000,,2013-02-09 17:11:00,
2013-02-09 12:22:00,53.0,21.0,-100.00,NW,314,5.0,9.0,28,0.00,,,0.00,0.000000,,2013-02-09 17:22:00,
2013-02-09 12:32:00,53.0,21.0,-100.00,NW,314,5.0,9.0,28,0.00,,,0.00,0.000000,,2013-02-09 17:32:00,
2013-02-09 12:42:00,56.0,18.0,-100.00,North,351,3.0,6.0,22,0.00,,,0.00,0.000000,,2013-02-09 17:42:00,
2013-02-09 13:02:00,56.0,18.0,-100.00,North,351,3.0,6.0,22,0.00,,,0.00,0.000000,,2013-02-09 18:02:00,
2013-02-09 13:12:00,56.0,18.0,-100.00,North,351,3.0,6.0,22,0.00,,,0.00,0.000000,,2013-02-09 18:12:00,
2013-02-09 13:23:00,56.0,18.0,-100.00,North,351,3.0,6.0,22,0.00,,,0.00,0.000000,,2013-02-09 18:23:00,
2013-02-09 13:32:00,56.0,18.0,-100.00,North,351,3.0,6.0,22,0.00,,,0.00,0.000000,,2013-02-09 18:32:00,
2013-02-09 13:42:00,59.0,18.0,-100.00,NNW,332,4.0,7.0,20,0.00,,,0.00,0.000000,,2013-02-09 18:42:00,
2013-02-09 14:02:00,59.0,18.0,-100.00,NNW,332,4.0,7.0,20,0.00,,,0.00,0.000000,,2013-02-09 19:02:00,
2013-02-09 14:11:00,59.0,18.0,-100.00,NNW,332,4.0,7.0,20,0.00,,,0.00,0.000000,,2013-02-09 19:11:00,
2013-02-09 14:22:00,59.0,18.0,-100.00,NNW,332,4.0,7.0,20,0.00,,,0.00,0.000000,,2013-02-09 19:22:00,
2013-02-09 14:32:00,59.0,18.0,-100.00,NNW,332,4.0,7.0,20,0.00,,,0.00,0.000000,,2013-02-09 19:32:00,
2013-02-09 14:42:00,60.0,18.0,-100.00,NNW,347,3.0,8.0,19,0.00,,,0.00,0.000000,,2013-02-09 19:42:00,
2013-02-09 15:02:00,60.0,18.0,-100.00,NNW,347,3.0,8.0,19,0.00,,,0.00,0.000000,,2013-02-09 20:02:00,
2013-02-09 15:11:00,60.0,18.0,-100.00,NNW,347,3.0,8.0,19,0.00,,,0.00,0.000000,,2013-02-09 20:11:00,
2013-02-09 15:22:00,60.0,18.0,-100.00,NNW,347,3.0,8.0,19,0.00,,,0.00,0.000000,,2013-02-09 20:22:00,
2013-02-09 15:32:00,60.0,18.0,-100.00,NNW,347,3.0,8.0,19,0.00,,,0.00,0.000000,,2013-02-09 20:32:00,
2013-02-09 15:42:00,62.0,17.0,-100.00,NNW,329,3.0,5.0,17,0.00,,,0.00,0.000000,,2013-02-09 20:42:00,
2013-02-09 16:02:00,62.0,17.0,-100.00,NNW,329,3.0,5.0,17,0.00,,,0.00,0.000000,,2013-02-09 21:02:00,
2013-02-09 16:12:00,62.0,17.0,-100.00,NNW,329,3.0,5.0,17,0.00,,,0.00,0.000000,,2013-02-09 21:12:00,
2013-02-09 16:22:00,62.0,17.0,-100.00,NNW,329,3.0,5.0,17,0.00,,,0.00,0.000000,,2013-02-09 21:22:00,
2013-02-09 16:32:00,62.0,17.0,-100.00,NNW,329,3.0,5.0,17,0.00,,,0.00,0.000000,,2013-02-09 21:32:00,
2013-02-09 16:42:00,62.0,18.0,-100.00,WNW,297,2.0,5.0,18,0.00,,,0.00,0.000000,,2013-02-09 21:42:00,
2013-02-09 17:02:00,62.0,18.0,-100.00,WNW,297,2.0,5.0,18,0.00,,,0.00,0.000000,,2013-02-09 22:02:00,
2013-02-09 17:11:00,62.0,18.0,-100.00,WNW,297,2.0,5.0,18,0.00,,,0.00,0.000000,,2013-02-09 22:11:00,
2013-02-09 17:22:00,62.0,18.0,-100.00,WNW,297,2.0,5.0,18,0.00,,,0.00,0.000000,,2013-02-09 22:22:00,
2013-02-09 17:32:00,62.0,18.0,-100.00,WNW,297,2.0,5.0,18,0.00,,,0.00,0.000000,,2013-02-09 22:32:00,
2013-02-09 17:42:00,57.0,15.0,-100.00,ENE,73,0.0,4.0,19,0.00,,,0.00,0.000000,,2013-02-09 22:42:00,
2013-02-09 18:02:00,57.0,15.0,-100.00,ENE,73,0.0,4.0,19,0.00,,,0.00,0.000000,,2013-02-09 23:02:00,
2013-02-09 18:11:00,57.0,15.0,-100.00,ENE,73,0.0,4.0,19,0.00,,,0.00,0.000000,,2013-02-09 23:11:00,
2013-02-09 18:22:00,57.0,15.0,-100.00,ENE,73,0.0,4.0,19,0.00,,,0.00,0.000000,,2013-02-09 23:22:00,
2013-02-09 18:32:00,57.0,15.0,-100.00,ENE,73,0.0,4.0,19,0.00,,,0.00,0.000000,,2013-02-09 23:32:00,
2013-02-09 18:42:00,50.0,18.0,-100.00,ESE,102,1.0,4.0,28,0.00,,,0.00,0.000000,,2013-02-09 23:42:00,
2013-02-09 19:02:00,50.0,18.0,-100.00,ESE,102,1.0,4.0,28,0.00,,,0.00,0.000000,,2013-02-10 00:02:00,
2013-02-09 19:12:00,50.0,18.0,-100.00,ESE,102,1.0,4.0,28,0.00,,,0.00,0.000000,,2013-02-10 00:12:00,
2013-02-09 19:22:00,50.0,18.0,-100.00,ESE,102,1.0,4.0,28,0.00,,,0.00,0.000000,,2013-02-10 00:22:00,
2013-02-09 19:32:00,50.0,18.0,-100.00,ESE,102,1.0,4.0,28,0.00,,,0.00,0.000000,,2013-02-10 00:32:00,
2013-02-09 19:42:00,43.0,19.0,-100.00,NNE,19,0.0,0.0,37,0.00,,,0.00,0.000000,,2013-02-10 00:42:00,
2013-02-09 20:01:00,43.0,19.0,-100.00,NNE,19,0.0,0.0,37,0.00,,,0.00,0.000000,,2013-02-10 01:01:00,
2013-02-09 20:32:00,43.0,19.0,-100.00,NNE,19,0.0,0.0,37,0.00,,,0.00,0.000000,,2013-02-10 01:32:00,
2013-02-09 20:42:00,39.0,23.0,-100.00,East,99,0.0,3.0,52,0.00,,,0.00,0.000000,,2013-02-10 01:42:00,
2013-02-09 21:01:00,39.0,23.0,-100.00,East,99,0.0,3.0,52,0.00,,,0.00,0.000000,,2013-02-10 02:01:00,
2013-02-09 21:32:00,39.0,23.0,-100.00,East,99,0.0,3.0,52,0.00,,,0.00,0.000000,,2013-02-10 02:32:00,
2013-02-09 21:42:00,38.0,25.0,-100.00,ESE,108,1.0,4.0,60,0.00,,,0.00,0.000000,,2013-02-10 02:42:00,
2013-02-09 22:02:00,38.0,25.0,-100.00,ESE,108,1.0,4.0,60,0.00,,,0.00,0.000000,,2013-02-10 03:02:00,
2013-02-09 22:12:00,38.0,25.0,-100.00,ESE,108,1.0,4.0,60,0.00,,,0.00,0.000000,,2013-02-10 03:12:00,
2013-02-09 22:22:00,38.0,25.0,-100.00,ESE,108,1.0,4.0,60,0.00,,,0.00,0.000000,,2013-02-10 03:22:00,
2013-02-09 22:32:00,38.0,25.0,-100.00,ESE,108,1.0,4.0,60,0.00,,,0.00,0.000000,,2013-02-10 03:32:00,
2013-02-09 22:42:00,40.0,19.0,-100.00,ESE,118,2.0,5.0,43,0.00,,,0.00,0.000000,,2013-02-10 03:42:00,
2013-02-09 23:02:00,40.0,19.0,-100.00,ESE,118,2.0,5.0,43,0.00,,,0.00,0.000000,,2013-02-10 04:02:00,
2013-02-09 23:11:00,40.0,19.0,-100.00,ESE,118,2.0,5.0,43,0.00,,,0.00,0.000000,,2013-02-10 04:11:00,
2013-02-09 23:22:00,40.0,19.0,-100.00,ESE,118,2.0,5.0,43,0.00,,,0.00,0.000000,,2013-02-10 04:22:00,
2013-02-09 23:32:00,40.0,19.0,-100.00,ESE,118,2.0,5.0,43,0.00,,,0.00,0.000000,,2013-02-10 04:32:00,